User: anonymous   Login
Location: Eymir
(36.7333°N, 29.7833°E)
Time: 05:46:25
(UTC+00:00)
Language:

ARIANE 6 FM1 Upper Stage - Orbit

View from above orbital plane
View from above orbital plane
View from above satellite
View from above satellite

Ground track
Ground track

The orbit is defined by the following mean orbital elements,

1 60235U          26065.84260440 +.00000000 +00000-0 +37728-3 0 00006
2 60235  61.9930 227.0999 0060731 112.0404 248.7151 15.00617288    09
Epoch (UTC): 06 March 2026 20:13:21
Eccentricity: 0.0060731
inclination: 61.9930°
perigee height: 523 km
apogee height: 607 km
right ascension of ascending node: 227.0999°
argument of perigee: 112.0404°
revolutions per day: 15.00617288
mean anomaly at epoch: 248.7151°

The dashed part of the orbit path shows where the satellite is in the earth's shadow,  

DLR